Regional Weather Roundup
Issued by NWS

Home | Current Version | Previous Version | Text Only | Print | Product List | Glossary Off
Versions: 1 2 3 4 5 6 7 8 9 10 11 12 13 14 15 16 17 18 19 20 21 22 23 24 25 26 27 28 29 30 31 32 33 34 35 36 37 38 39 40 41 42 43 44 45 46 47 48 49 50

000
ASUS43 KMPX 282001
RWRMN
WEATHER ROUNDUP FOR MINNESOTA
NATIONAL WEATHER SERVICE TWIN CITIES/CHANHASSEN MN
200 PM CST SUN DEC 28 2014


NOTE: "FAIR" INDICATES FEW OR NO CLOUDS BELOW 12,000 FEET WITH NO
SIGNIFICANT WEATHER AND/OR OBSTRUCTIONS TO VISIBILITY. N/A MEANS
CURRENT SKY AND/OR WEATHER CONDITIONS ARE NOT AVAILABLE.

MNZ060>063-068>070-282100-
   Twin Cities Metro

CITY           SKY/WX    TMP DP  RH WIND       PRES   REMARKS
TWIN CITIES    PTSUNNY   22  14  71 NE9       30.18R WCI  12
ST PAUL        CLOUDY    22  15  75 N6        30.20R WCI  14
CRYSTAL        CLOUDY    24  15  68 N5        30.17R WCI  18
BLAINE         CLOUDY    25  18  74 N8        30.16S WCI  16
LAKEVILLE      CLOUDY    19  16  86 CALM      30.17R
EDEN PRAIRIE   CLOUDY    24  16  71 N7        30.16S WCI  16
SOUTH ST PAUL  CLOUDY    23  15  73 N3        30.18R
LAKE ELMO      CLOUDY    23  16  74 N8        30.18R WCI  14
$$
MNZ001>005-007-008-013>017-022>024-027-028-282100-
   Northwest Minnesota

CITY           SKY/WX    TMP DP  RH WIND       PRES   REMARKS
BEMIDJI        SUNNY      5  -3  70 NW8       30.21R WCI  -8
HALLOCK        SUNNY     -2  -9  71 NW8       30.35R WCI -17
ROSEAU         SUNNY      0  -8  71 W7        30.28S WCI -13
WARROAD        SUNNY      1  -8  66 W7        30.27S WCI -11
THIEF RVR FALL SUNNY     -2  -8  78 NW8       30.29R WCI -17
CROOKSTON      SUNNY     -2  -9  71 N12       30.34S WCI -20
FOSSTON        SUNNY      3  -6  66 NW7       30.26R WCI  -9
DETROIT LAKES  SUNNY      9   3  78 NW9       30.22R WCI  -5
MOORHEAD       SUNNY      7   0  72 N14       30.29R WCI -10
PARK RAPIDS    SUNNY     11  -3  53 N3        30.18S
MAHNOMEN       FAIR       3  -4  74 N9        30.24S WCI -12
$$
MNZ006-009>011-018-025>026-282100-
   North Central Minnesota

CITY           SKY/WX    TMP DP  RH WIND       PRES   REMARKS
BAUDETTE       SUNNY     -1 -11  62 NW7       30.24S WCI -14
FLAG ISLAND    CLOUDY    -4 -11  71 W9        30.25S WCI -20
INTL FALLS     SUNNY      2  -8  63 W8        30.22R WCI -12
WASKISH        SUNNY      3  -4  72 CALM      30.24R
BIG FORK       SUNNY      9  -4  56 NW5       30.19S WCI   0
LONGVILLE      SUNNY      9  -2  61 NW6       30.20R WCI  -1
GRAND RAPIDS   SUNNY      7  -2  66 NW7       30.18R WCI  -5
CRANE LAKE     SUNNY      3  -8  60 NW6       30.22R WCI  -8
ORR            SUNNY      5  -8  56 NW6       30.16R WCI  -6
COOK           SUNNY      7  -6  56 W6        30.18R WCI  -3
WALKER         FAIR       8  -3  61 N5        30.20R WCI  -1
$$
MNZ012-019>021-037-282100-
   Northeast Minnesota

CITY           SKY/WX    TMP DP  RH WIND       PRES   REMARKS
DULUTH         SUNNY     10  -5  50 N9        30.14S WCI  -3
ELY            SUNNY      5  -6  61 NW6       30.15R WCI  -6
HIBBING        SUNNY      8  -4  58 NW9       30.17S WCI  -5
EVELETH        SUNNY      7  -4  61 NW7       30.17S WCI  -5
DULUTH HARBOR  SUNNY     14  -2  48 CALM      30.23R
TWO HARBORS    SUNNY     14   0  52 NW5       30.15R WCI   6
SILVER BAY     SUNNY     12   0  57 W6        30.14R WCI   3
GRAND MARAIS     N/A     13  -2  51 NW7       30.17R WCI   3
G MARAIS ARPRT SUNNY      3  -6  66 NW7       30.05R WCI  -9
$$
MNZ029>031-032-039>041-046>048-054>057-064-282100-
   West Central Minnesota

CITY           SKY/WX    TMP DP  RH WIND       PRES   REMARKS
FERGUS FALLS   SUNNY     14   0  52 N7        30.25R WCI   4
WHEATON        PTSUNNY    9   1  72 NW10G17   30.25S WCI  -6
MORRIS         PTSUNNY   19  10  68 N10       30.18S WCI   8
ALEXANDRIA     SUNNY     20   5  52 N9        30.16F WCI   9
ELBOW LAKE     FAIR      15   5  63 N6        30.19S WCI   7
WADENA         SUNNY     12   1  62 N7        30.18S WCI   2
GLENWOOD       MOSUNNY   19  10  68 N9        30.17R WCI   9
APPLETON       CLOUDY    19  12  73 N15       30.20R WCI   5
BENSON         PTSUNNY   23  12  63 N8        30.18R WCI  14
ORTONVILLE     PTSUNNY   14   9  79 N13       30.20S WCI   0
MADISON        MOSUNNY   21  16  79 N12       30.20R WCI   9
WILLMAR        FAIR      25  16  68 N9        30.18R WCI  15
$$
MNZ033>034-036-042>043-049>051-058-059-282100-
   Central Minnesota

CITY           SKY/WX    TMP DP  RH WIND       PRES   REMARKS
ST CLOUD       SUNNY     23   9  55 N9        30.18R WCI  13
SAUK CENTRE    FAIR      18   8  62 N6        30.17S WCI  10
PAYNESVILLE    MOSUNNY   18  10  71 NW7       30.17S WCI   9
AITKIN         SUNNY     18   0  45 N5        30.17S WCI  11
PINE RIVER     SUNNY     10   0  61 N7        30.22S WCI   0
BRAINERD       SUNNY     14  -1  51 N8        30.19R WCI   3
STAPLES        SUNNY     14  -2  48 N6        30.18S WCI   5
LONG PRAIRIE   FAIR      18   3  53 N8        30.17S WCI   7
LITTLE FALLS   SUNNY     19   3  49 N6        30.18S WCI  11
LITCHFIELD     PTSUNNY   23  18  80 N7        30.17R WCI  15
BUFFALO        CLOUDY    23  15  71 N6        30.19R WCI  16
MAPLE LAKE     CLOUDY    23  15  71 N7        30.18S WCI  14
$$
MNZ037-044-045-052-053-282100-
   East Central Minnesota

CITY           SKY/WX    TMP DP  RH WIND       PRES   REMARKS
PRINCETON      SUNNY     21   9  58 N9        30.18R WCI  11
MORA           SUNNY     19   1  45 VRB5      30.19R WCI  13
CAMBRIDGE      SUNNY     23   9  54 N6        30.16R WCI  16
RUSH CITY      SUNNY     21   6  52 N6        30.18S WCI  13
MOOSE LAKE     SUNNY     16  -2  45 NW6       30.17R WCI   7
HINCKLEY       FAIR      19   5  53 CALM      30.18R
CLOQUET        SUNNY     10  -4  52 N8G16     30.16S WCI  -1
MCGREGOR       SUNNY     14   0  52 NW8       30.18S WCI   3
$$
MNZ071>073-080-081-089-090-097-098-282100-
   Southwest Minnesota

CITY           SKY/WX    TMP DP  RH WIND       PRES   REMARKS
MONTEVIDEO     PTSUNNY   23  18  80 CALM      30.19R
GRANITE FALLS  PTSUNNY   25  17  72 N7        30.19R WCI  17
CANBY          CLOUDY    19  15  83 N7        30.19R WCI  10
MARSHALL       CLOUDY    21  16  79 N10       30.16S WCI  10
REDWOOD FALLS  CLOUDY    25  18  74 N7        30.17S WCI  17
OLIVIA         CLOUDY    23  19  86 NE7       30.16S WCI  15
PIPESTONE      CLOUDY    19  19 100 NE12      30.11R WCI   7
WINDOM         SUNNY     19  16  86 N8        30.13R WCI   9
WORTHINGTON    MOSUNNY   21 -24  12 N9        30.12R WCI  11
JACKSON        SUNNY     21  18  86 N6        30.12S WCI  14
TRACY          CLOUDY    22  20  91 N7        30.15R WCI  14
SLAYTON        CLOUDY    19  18  96 N8        30.13R FOG     WCI   9
$$
MNZ065>067-074>077-082>085-091>093-282100-
   South Central Minnesota

CITY           SKY/WX    TMP DP  RH WIND       PRES   REMARKS
MANKATO        MOSUNNY   19  14  79 N6        30.15F WCI  11
NEW ULM        CLOUDY    16  16 100 N5        30.17S FOG     WCI   9
ST JAMES       FOG       18  16  93 N7        30.17S VSB 1/2 WCI   8
FAIRMONT       SUNNY     21  12  68 N5        30.14S WCI  15
GLENCOE        CLOUDY    24  20  84 N6        30.16S WCI  17
FARIBAULT      MOSUNNY   21  16  79 N5        30.17R WCI  15
OWATONNA       SUNNY     18  12  79 NW5       30.15R WCI  11
ALBERT LEA     SUNNY     19  14  79 N3        30.14R
$$
MNZ078>079-086>088-094>096-282100-
   Southeast Minnesota

CITY           SKY/WX    TMP DP  RH WIND       PRES   REMARKS
ROCHESTER      SUNNY     18  12  77 NW5       30.13R WCI  11
RED WING       CLOUDY    21  12  68 CALM      30.17R
STANTON        CLOUDY    22  15  73 N7        30.16R WCI  14
DODGE CENTER   MOSUNNY   19  16  86 CALM      30.13R
WINONA         CLOUDY    25  18  74 NW6       30.17S WCI  18
AUSTIN         SUNNY     19  14  79 N3        30.13R
PRESTON        SUNNY     19  13  77 W3        30.14R
$$
ABBREVIATIONS USED IN REMARKS
   TC - TEMPERATURES IN CELSIUS
  WCI - WIND CHILL INDEX
   HX - HEAT INDEX
  VSB - VISIBILITY
$$


USA.gov is the U.S. government's official web portal to all federal, state and local government web resources and services.